Showing default

DRAGRACER 2(AUGURY), 46955

Orbit data source: Space-Track

DRAGRACER 2(AUGURY), 46955 is a payload satellite owned by TriSept (US) in SSO that was launched on Fri, 20 Nov 2020 UTC via an ELECTRON launch vehicle from the Rocket Lab Launch Complex (RLLC). Payloads include a variety of satellites, spacecraft, and rockets equipped with specific instruments for various scientific and technological missions. These include communications satellites like Starlink; space stations such as the ISS; scientific satellites like the Hubble; Earth observation satellites from companies like Planet Labs, Umbra, and HawkEye 360; GPS; miniature CubeSats for education and research; and military/defense satellites.

Loading next visibility...
DRAGRACER 2(AUGURY) details
Identifier
46955, 2020-085AC
Orbit
SSO
Last TLE update19 hours ago
Origin
Flag of USTriSept (US)
ManufacturerMillenium ES
MissionOperational Commercial Technology
Bus & MotorCUBESAT 6U, Unknown motor
Mass12 kg wet, 12 kg dry
Launch date (UTC)
2020-11-20 (4 years ago)
Launch vehicle
ELECTRON
Launch site
Rocket Lab Launch Complex (RLLC)
Object type
Payload
Rocket body
Debris
Shape & HBRBox, Unknown HBR
Radar Cross Section0.080 m², Medium (>0.1 m² and < 1m²)

Expand to show TLE details & history

TLE from 19 hours ago
0 DRAGRACER 2(AUGURY)
1 46955U 20085AC  24360.68808722  .00023724  00000-0  55518-3 0  9995
2 46955  97.5608 153.9537 0009349  85.5064 274.7251 15.42090482228186
Epoch: 2024-12-25T16:30Z
Definitive object data (Epoch: 2024-12-25T16:30:50.735Z)
Latitude0.00001°
Longitude171.56406°
Altitude442.537 km
Speed7.647 km/s
True Right ascension10h 15m 48s
True Declination0° 00' 00"
Sunlit
Object was in full shadow at TLE epoch
Visualization TLE readout
Latitude0.12664°
Longitude172.35431°
Altitude442.087 km
Speed7.647 km/s
Apparent Right ascension09h 42m 34s
Apparent Declination-64° 15' 16"
Sunlit
Object is in full shadow
Visualization observer readout
Local Sidereal Time10:33:27
Azimuth185.674° SSW
Elevation-14.655°
Doppler factor1
Orbital elements
Apogee altitude443.255 km
Perigee altitude430.512 km
Semi-major axis6,815.021 km
Eccentricity0.0009349
Inclination97.5608°
RAAN153.9537°
Arg. of periapsis85.5064°
True anomaly274.61832°
Mean anomaly274.7251°
Eccentric anomaly274.67171°
Mean motion3.85782 °/min
BSTAR0.00055518
Orbital period93.32 mins
Loading maneuver chart data...

DRAGRACER 2(AUGURY) Visibility forecast

Observer location: undefined°, undefined

Span
Click to sort rows by Start time (UTC) header in descending order
Start Az.
Max El. time (UTC)
Max El. Az.
Max El.
End time (UTC)
End Az.
4 mins2024-12-26 11:20:08.957Z225.211° WSW2024-12-26 11:22:08.957Z264.791° W16.217°2024-12-26 11:24:08.957Z304.69° NW
4 mins2024-12-26 22:41:08.957Z58.426° ENE2024-12-26 22:43:08.957Z109.683° ESE20.171°2024-12-26 22:45:08.957Z148.054° SSE
5 mins2024-12-27 10:42:08.957Z185.827° SSW2024-12-27 10:44:08.957Z276.265° WNW40.243°2024-12-27 10:47:08.957Z339.854° N
|